Skip Page Navigation
NASA JPL Caltech
NASA Logo - Jet Propulsion Laboratory + View the NASA Portal
+ Center for Near-Earth Object Studies
JPL Home Earth Solar System Stars & Galaxies Technology
JPL Solar System Dynamics
BODIES ORBITS EPHEMERIDES TOOLS PHYSICAL DATA DISCOVERY FAQ SITE MAP

Significant website upgrade scheduled for September 27. More details available here.

JPL Small-Body Database Browser
Search: [ help ]  
(2019 JF1)
Classification: Apollo [NEO]          SPK-ID: 3841705
Ephemeris | Orbit Diagram | Orbital Elements | Mission Design | Physical Parameters | Close-Approach Data ]

[ hide orbit diagram ]

For accurate long-term ephemerides, please instead use our Horizons system.This orbit viewer was implemented using two-body methods, and hence should not be used for determining accurate long-term trajectories (over several years or decades) or planetary encounter circumstances.


Orbital Elements at Epoch 2459396.5 (2021-Jul-01.0) TDB
Reference: JPL 28 (heliocentric ecliptic J2000)
 Element Value Uncertainty (1-sigma)   Units 
e .2254483463649595 2.8695e-06  
a 1.265917122296736 4.2351e-06 au
q .9805182004398488 3.5269e-07 au
i 1.581610807518147 1.7355e-05 deg
node 269.09165599 5.7291e-05 deg
peri 58.22330065427021 7.6854e-05 deg
M 108.4657908639782 0.0023415 deg
tp 2459239.753943184022
(2021-Jan-25.25394318)
0.0025972 TDB
period 520.2431107934912
1.42
0.0026107
7.148e-06
d
yr
n .6919841753424023 3.4725e-06 deg/d
Q 1.551316044153624 5.1899e-06 au
  Orbit Determination Parameters
   # obs. used (total)      113  
   data-arc span      183 days  
   first obs. used      2019-05-01  
   last obs. used      2019-10-31  
   planetary ephem.      DE441  
   SB-pert. ephem.      SB441-N16  
   condition code      4  
   norm. resid. RMS      .51815  
   source      ORB  
   producer      Otto Matic  
   solution date      2021-Apr-15 21:14:58  

Additional Information
 Earth MOID = .0102297 au 
 Jupiter MOID = 3.7467 au 
 T_jup = 5.071 
[ show covariance matrix ]

Ephemeris | Orbit Diagram | Orbital Elements | Mission Design | Physical Parameters | Close-Approach Data ]

Physical Parameter Table
Parameter Symbol Value Units Sigma Reference Notes
absolute magnitude H 23.7   .44183 MPO504265 autocmod 2.8

[ hide close-approach data ]
Close-Approach Data   ...sorted by Date/Time (TDB)
Date/Time (TDB) Time Uncertainty
(days_HH:MM)
Body Nominal Distance (au) Minimum Distance (au) Maximum Distance (au) V-relative (km/s) V-infinity (km/s) JD (TDB) Time Uncertainty (minutes) Semi-major axis (km) Semi-minor axis (km) range-LOV angle (deg) N-sigma BP Orbit Ref. Reference Modified
1955-Jul-05 04:14 1_17:06 Earth 0.0337618373415377 0.0243063004469695 0.0433261732260017 5.64704737644355 5.6330546207174 2435293.676233798 2465.93933203409 483785.28424602 4.93245136441223 -11.2177502509205 170973.700725734 T 28 CATAB v2.0g-lin.ifort 2021-Apr-15 21:14:59 2021-Apr-15 21:15
1962-Apr-06 21:01 16:25 Earth 0.452350862223498 0.449805865138338 0.45490038694791 7.09865429984416 7.09782447526844 2437761.375867949 984.618260962522 145697.918158458 6.53900656204905 -29.3587550075779 2737103.25428819 T 28 CATAB v2.0g-lin.ifort 2021-Apr-15 21:14:59 2021-Apr-15 21:15
1962-Oct-27 19:29 09:27 Earth 0.480801065000133 0.472658626816581 0.488943788763597 18.9424247256488 18.9421321658023 2437965.311695704 566.891128975231 406457.822027506 5.05550051496667 -2.63442297819223 545727.04434756 T 28 CATAB v2.0g-lin.ifort 2021-Apr-15 21:14:59 2021-Apr-15 21:15
1965-Jun-11 22:04 09:01 Earth 0.331943286841253 0.32486502743056 0.339021595210534 14.4685871547779 14.4680323621664 2438923.419702192 540.91839212412 353022.64188522 5.60165922511162 -1.18243705600928 145171.506305128 T 28 CATAB v2.0g-lin.ifort 2021-Apr-15 21:14:59 2021-Apr-15 21:15
1965-Dec-14 06:06 16:16 Earth 0.399158843471641 0.396256029702522 0.402062974905121 6.3785610213321 6.37751442425467 2439108.754442665 975.939266406514 149233.385074898 5.83562170937773 14.1206773168256 1283930.66269899 T 28 CATAB v2.0g-lin.ifort 2021-Apr-15 21:14:59 2021-Apr-15 21:15
1972-May-10 02:05 15:08 Earth 0.319849487720965 0.317492410449499 0.322207450506864 4.27843417573938 4.27648666124828 2441447.586585063 907.593483294683 120519.617796494 5.09667473340954 -13.1472016642961 813163.260570655 T 28 CATAB v2.0g-lin.ifort 2021-Apr-15 21:14:59 2021-Apr-15 21:15
1972-Oct-11 05:11 06:48 Earth 0.169704764884727 0.165627421659705 0.173784962835421 9.67442221643149 9.6727991745944 2441601.715934051 407.739426312149 206332.488101551 4.91558643526286 -9.74242672020889 671959.778003627 T 28 CATAB v2.0g-lin.ifort 2021-Apr-15 21:14:59 2021-Apr-15 21:15
1976-Jan-08 14:10 03:43 Earth 0.494333524964333 0.493678455117483 0.494988711746041 8.10181356805829 8.10114825219407 2442786.090594938 223.162756001841 34799.2459449604 7.52940074047545 20.1765060266022 2137533.05035879 T 28 CATAB v2.0g-lin.ifort 2021-Apr-15 21:14:59 2021-Apr-15 21:15
1982-Jul-30 09:43 18:00 Earth 0.0303599720031952 0.0297418921707394 0.0309780989995327 3.98868971793984 3.9666257519507 2445180.905010398 1080.40621044835 30880.5003103272 4.9049930364803 -2.59598784945104 41325.457711543 T 28 CATAB v2.0g-lin.ifort 2021-Apr-15 21:14:59 2021-Apr-15 21:15
1989-Mar-24 17:30 03:13 Earth 0.499285034819559 0.498856254488782 0.499714031100665 7.91793543929245 7.91726142308991 2447610.228923500 192.517880930092 26935.7028082912 6.95367386587973 -37.4531123815503 3830243.59480411 T 28 CATAB v2.0g-lin.ifort 2021-Apr-15 21:14:59 2021-Apr-15 21:15
1992-Jun-23 16:11 03:39 Earth 0.132220990469376 0.130265042336218 0.134176934159754 8.65032157186985 8.64799166699918 2448797.173975724 219.249436249545 97527.6205940618 5.0409847897473 -1.05578071167326 54142.9117075048 T 28 CATAB v2.0g-lin.ifort 2021-Apr-15 21:14:59 2021-Apr-15 21:15
1992-Nov-19 04:15 07:58 Earth 0.300479123932222 0.299261065273997 0.30169737466826 4.12458667865272 4.12243622123335 2448945.677389005 477.625952170549 61915.1651742383 4.36388592878863 11.7677257425626 746283.298002798 T 28 CATAB v2.0g-lin.ifort 2021-Apr-15 21:14:59 2021-Apr-15 21:15
1999-Apr-12 00:49 03:26 Earth 0.434726096360065 0.434172114682925 0.43528026413873 6.75073433944661 6.74982636247242 2451280.534205228 206.165351207584 31057.8410427894 6.34988338562384 -27.2115263602015 2505306.12341781 T 28 CATAB v2.0g-lin.ifort 2021-Apr-15 21:14:59 2021-Apr-15 21:15
1999-Oct-25 10:51 01:50 Earth 0.426398234196797 0.424784883453439 0.428011606860143 17.3327490266113 17.3323885027387 2451476.951779475 109.622115018539 80596.1421773593 4.92030056102464 -3.45787837293614 643492.283120421 T 28 CATAB v2.0g-lin.ifort 2021-Apr-15 21:14:59 2021-Apr-15 21:15
2002-Jun-10 10:06 01:46 Earth 0.365794281719541 0.364382013418398 0.367206553442566 15.4660553615429 15.4655843815085 2452435.920918692 105.829234997123 70446.2910147458 5.90686861578875 -1.52842254338907 198380.87486139 T 28 CATAB v2.0g-lin.ifort 2021-Apr-15 21:14:59 2021-Apr-15 21:15
2002-Dec-17 10:28 03:09 Earth 0.413376453328335 0.412820927687806 0.413932030063693 6.63491863554685 6.63394709077645 2452625.935928666 189.388354627898 28635.4629159229 6.13506027245222 14.7361868353951 1379321.72319334 T 28 CATAB v2.0g-lin.ifort 2021-Apr-15 21:14:59 2021-Apr-15 21:15
2009-May-07 05:59 03:16 Earth 0.332348296756775 0.331845042313751 0.332851600937769 4.54876941358886 4.54700658884259 2454958.749529778 195.931553410341 25902.8106268561 5.15760473940066 -14.6476598352585 953178.023182272 T 28 CATAB v2.0g-lin.ifort 2021-Apr-15 21:14:59 2021-Apr-15 21:15
2009-Oct-12 18:11 01:22 Earth 0.190854722793787 0.189923595728055 0.191785959034978 10.3107834968245 10.3094294106743 2455117.257356915 81.5423678086896 46988.9388077542 4.8156080163952 -8.86611033066989 704582.222542897 T 28 CATAB v2.0g-lin.ifort 2021-Apr-15 21:14:59 2021-Apr-15 21:15
2013-Jan-04 12:58 01:07 Earth 0.484869451531063 0.484686362926144 0.485052550665794 7.9294661336405 7.92877308683713 2456297.040039994 67.0681125008646 9800.83635238238 7.19545519479115 21.345932608768 2179905.15460389 T 28 CATAB v2.0g-lin.ifort 2021-Apr-15 21:14:59 2021-Apr-15 21:15
2019-Sep-16 06:44 < 00:01 Earth 0.0286658333889835 0.0286648765806814 0.0286667901966386 4.30179772641134 4.28013602213273 2458742.780265582 0.109717195499651 47.2236541218788 3.5009666797554 1.13813333025781 48181.6331146765 T 28 CATAB v2.0g-lin.ifort 2021-Apr-15 21:14:59 2021-Apr-15 21:15
2029-Jul-03 07:57 03:09 Earth 0.0431046229268657 0.0422586395897302 0.0439510976924587 5.93194947591894 5.92151974687895 2462320.831434118 188.646233076824 42818.6362651918 4.89922915487017 -10.0304533144567 192205.6389575 T 28 CATAB v2.0g-lin.ifort 2021-Apr-15 21:14:59 2021-Apr-15 21:15
2036-Apr-12 02:57 02:49 Earth 0.430177959242057 0.429690524189947 0.430665509013018 6.66590230255213 6.66497304621817 2464795.623080412 168.858834551642 26714.6256605528 6.53379756346492 -24.5410069842693 2212045.48141513 T 28 CATAB v2.0g-lin.ifort 2021-Apr-15 21:14:59 2021-Apr-15 21:15
2036-Oct-24 15:49 01:18 Earth 0.415673076188427 0.414331870780325 0.417014298918963 17.0300924418045 17.0297160429826 2464991.159045980 77.8240390944175 67014.6478216137 4.91982136347084 -3.64892543070638 659341.522518234 T 28 CATAB v2.0g-lin.ifort 2021-Apr-15 21:14:59 2021-Apr-15 21:15
2039-Jun-08 04:41 02:34 Earth 0.415928036962263 0.413775413541744 0.418080669466405 16.9291963625152 16.9288179524567 2465947.695454035 154.179445346559 107386.605789216 6.32049216125476 -1.69807950592334 238819.033795089 T 28 CATAB v2.0g-lin.ifort 2021-Apr-15 21:14:59 2021-Apr-15 21:15
2039-Dec-23 02:48 04:56 Earth 0.431236397975902 0.430490774786506 0.431982167542744 7.00457516836192 7.00369301824706 2466145.616340037 295.589895665491 39238.9740872854 6.33064132777043 18.6693516594261 1806752.80878945 T 28 CATAB v2.0g-lin.ifort 2021-Apr-15 21:14:59 2021-Apr-15 21:15
